GW2054 Weather Reports


Display with metric or nautical units.
time (UTC)temp
F
wind
direction
speed
MPH
gust
MPH
rain 1hr
in
rain 24hr
in
rain mn
in
humidity
%
barometer
mb
20260505152205 74 338 4.0 7.0 0.00 0.00 0.00 82 1014.3
20260505151143 73 68 1.0 7.0 0.00 0.00 0.00 84 1014.3
20260505150634 73 113 2.0 7.0 0.00 0.00 0.00 83 1014.4
20260505150124 73 23 1.0 7.0 0.00 0.00 0.00 84 1014.5
20260505130231 62 68 0.0 4.0 0.00 0.00 0.00 92 1014.7
20260505124150 61 90 1.0 4.0 0.00 0.00 0.00 93 1014.8
20260505123640 60 90 0.0 0.0 0.00 0.00 0.00 93 1014.7
20260505123131 60 90 0.0 2.0 0.00 0.00 0.00 93 1014.6
20260505122620 60 90 0.0 2.0 0.00 0.00 0.00 93 1014.7
20260505122110 59 68 1.0 2.0 0.00 0.00 0.00 93 1014.4
20260505121600 59 90 2.0 2.0 0.00 0.00 0.00 93 1014.2
20260505121050 59 68 0.0 0.0 0.00 0.00 0.00 93 1014.5
20260505120030 58 90 1.0 2.0 0.00 0.00 0.00 93 1014.1
20260505115520 58 68 2.0 2.0 0.00 0.00 0.00 93 1014.3
20260505115010 58 68 2.0 2.0 0.00 0.00 0.00 94 1014.1
20260505114500 58 68 0.0 0.0 0.00 0.00 0.00 94 1014.0
20260505113948 57 68 0.0 0.0 0.00 0.00 0.00 94 1013.9
20260505113440 57 68 0.0 0.0 0.00 0.00 0.00 94 1013.8
20260505112929 57 68 0.0 0.0 0.00 0.00 0.00 94 1013.6
20260505112418 57 68 0.0 0.0 0.00 0.00 0.00 94 1013.8
20260505111358 57 68 0.0 2.0 0.00 0.00 0.00 94 1013.6
20260505102216 56 68 0.0 0.0 0.00 0.00 0.00 92 1013.4
20260505101707 56 68 0.0 0.0 0.00 0.00 0.00 92 1013.4
20260505101156 56 68 0.0 0.0 0.00 0.00 0.00 91 1013.2
20260505100647 56 68 0.0 0.0 0.00 0.00 0.00 91 1013.3
20260505100136 56 68 0.0 0.0 0.00 0.00 0.00 91 1013.2
20260505095627 56 68 0.0 0.0 0.00 0.00 0.00 91 1013.4
20260505094056 55 68 0.0 0.0 0.00 0.00 0.00 93 1013.0
20260505093546 55 68 0.0 0.0 0.00 0.00 0.00 93 1013.0
20260505093036 55 68 0.0 0.0 0.00 0.00 0.00 94 1013.1
20260505092526 55 68 0.0 0.0 0.00 0.00 0.00 94 1013.1
20260505092016 55 68 0.0 0.0 0.00 0.00 0.00 94 1012.9
20260505091513 55 68 0.0 0.0 0.00 0.00 0.00 94 1012.9
20260505090955 55 68 0.0 0.0 0.00 0.00 0.00 94 1012.8
20260505090448 55 68 0.0 0.0 0.00 0.00 0.00 94 1012.9
20260505085936 55 68 0.0 0.0 0.00 0.00 0.00 94 1013.1
20260505084916 55 68 0.0 0.0 0.00 0.00 0.00 94 1012.7
20260505084405 54 68 0.0 0.0 0.00 0.00 0.00 93 1012.8
20260505083344 54 68 0.0 0.0 0.00 0.00 0.00 93 1012.9
20260505082835 54 68 0.0 0.0 0.00 0.00 0.00 93 1012.8
20260505081815 53 68 0.0 0.0 0.00 0.00 0.00 94 1013.0
20260505081304 53 68 0.0 0.0 0.00 0.00 0.00 94 1012.8
20260505080755 53 68 0.0 0.0 0.00 0.00 0.00 94 1012.7
20260505075734 53 68 0.0 0.0 0.00 0.00 0.00 94 1012.8
20260505075224 53 68 0.0 0.0 0.00 0.00 0.00 94 1012.7
20260505074204 52 68 0.0 0.0 0.00 0.00 0.00 94 1012.5
20260505073654 52 68 0.0 0.0 0.00 0.00 0.00 94 1012.6
20260505073143 52 68 0.0 0.0 0.00 0.00 0.00 93 1012.4
20260505072637 52 68 0.0 0.0 0.00 0.00 0.00 93 1012.6
20260505072123 52 68 0.0 0.0 0.00 0.00 0.00 92 1012.5
20260505071615 51 68 0.0 0.0 0.00 0.00 0.00 92 1012.5
20260505071103 52 68 0.0 0.0 0.00 0.00 0.00 91 1012.5
20260505070553 52 68 0.0 0.0 0.00 0.00 0.00 91 1012.2
20260505070044 53 68 0.0 0.0 0.00 0.00 0.00 91 1012.1
20260505065532 53 68 0.0 0.0 0.00 0.00 0.00 91 1012.1
20260505065023 53 68 0.0 0.0 0.00 0.00 0.00 91 1012.1
20260505064003 53 68 0.0 0.0 0.00 0.00 0.00 91 1012.1
20260505063452 53 68 0.0 0.0 0.00 0.00 0.00 91 1012.2
20260505062432 52 68 0.0 0.0 0.00 0.00 0.00 91 1012.5
20260505061921 52 68 0.0 0.0 0.00 0.00 0.00 91 1012.6
20260505061412 53 68 0.0 0.0 0.00 0.00 0.00 90 1012.4
20260505060901 53 68 0.0 0.0 0.00 0.00 0.00 90 1012.6
20260505060350 53 68 0.0 0.0 0.00 0.00 0.00 90 1012.6
20260505060148 53 68 0.0 0.0 0.00 0.00 0.00 90 1012.8
20260505055642 53 68 0.0 0.0 0.00 0.00 0.00 91 1012.8
20260505055133 53 68 0.0 0.0 0.00 0.00 0.00 91 1012.7
20260505054622 53 68 0.0 0.0 0.00 0.00 0.00 91 1013.0
20260505054112 53 68 0.0 0.0 0.00 0.00 0.00 91 1012.8
20260505053602 52 68 0.0 0.0 0.00 0.00 0.00 90 1013.0
20260505053052 53 68 0.0 0.0 0.00 0.00 0.00 90 1013.0
20260505052542 53 68 0.0 2.0 0.00 0.00 0.00 90 1013.0
20260505051532 53 68 0.0 0.0 0.00 0.00 0.00 92 1013.0
20260505041320 51 68 0.0 0.0 0.00 0.00 0.00 91 1012.9
20260505040810 51 68 0.0 0.0 0.00 0.00 0.00 91 1013.0
20260505040300 51 68 0.0 0.0 0.00 0.00 0.00 91 1013.1
20260505035750 51 68 0.0 0.0 0.00 0.00 0.00 91 1013.1
20260505035240 51 68 0.0 0.0 0.00 0.00 0.00 91 1012.9
20260505034220 51 68 0.0 0.0 0.00 0.00 0.00 90 1012.8
20260505033709 52 68 0.0 0.0 0.00 0.00 0.00 92 1012.9
20260505032649 52 68 0.0 0.0 0.00 0.00 0.00 92 1012.9
20260505032138 52 68 0.0 0.0 0.00 0.00 0.00 92 1012.8
20260505031119 51 68 0.0 0.0 0.00 0.00 0.00 92 1012.9
20260505030609 50 68 0.0 0.0 0.00 0.00 0.00 92 1012.8
20260505030058 50 68 0.0 0.0 0.00 0.00 0.00 92 1012.8
20260505025038 51 68 0.0 0.0 0.00 0.00 0.00 92 1012.9
20260505024529 51 68 0.0 0.0 0.00 0.00 0.00 92 1012.9
20260505022957 51 68 0.0 0.0 0.00 0.00 0.00 91 1012.9
20260505021938 51 68 0.0 0.0 0.00 0.00 0.00 91 1012.8
20260505021427 51 68 0.0 0.0 0.00 0.00 0.00 91 1012.7
20260505020918 50 68 0.0 0.0 0.00 0.00 0.00 90 1013.0
20260505020408 50 68 0.0 0.0 0.00 0.00 0.00 90 1013.0
20260505015857 50 68 0.0 0.0 0.00 0.00 0.00 89 1013.0
20260505015347 50 68 0.0 0.0 0.00 0.00 0.00 89 1013.1
20260505014837 51 68 0.0 0.0 0.00 0.00 0.00 89 1013.0
20260505014327 51 68 0.0 0.0 0.00 0.00 0.00 89 1013.1
20260505013816 52 68 0.0 0.0 0.00 0.00 0.00 89 1012.8
20260505012757 51 68 0.0 0.0 0.00 0.00 0.00 89 1012.7
20260505012246 51 68 0.0 0.0 0.00 0.00 0.00 88 1012.6
20260505011736 52 68 0.0 0.0 0.00 0.00 0.00 88 1012.4
20260505011226 52 68 0.0 0.0 0.00 0.00 0.00 87 1012.5
20260505010717 52 68 0.0 0.0 0.00 0.00 0.00 87 1012.4
20260505010206 52 68 0.0 0.0 0.00 0.00 0.00 87 1012.3
20260505004635 52 68 0.0 0.0 0.00 0.00 0.00 86 1012.1
20260505003615 52 68 0.0 0.0 0.00 0.00 0.00 85 1012.1
20260505003106 52 68 0.0 0.0 0.00 0.00 0.00 84 1011.9
20260505002555 53 68 0.0 0.0 0.00 0.00 0.00 83 1011.8
20260505002046 53 68 0.0 0.0 0.00 0.00 0.00 82 1011.9
20260505001536 53 68 0.0 0.0 0.00 0.00 0.00 82 1012.1
20260505001025 53 68 0.0 0.0 0.00 0.00 0.00 82 1011.8
20260504235454 54 68 0.0 0.0 0.00 0.00 0.00 83 1011.9
20260504234944 54 68 0.0 0.0 0.00 0.00 0.00 83 1011.8
20260504234434 54 68 0.0 0.0 0.00 0.00 0.00 83 1011.6
20260504233925 54 68 0.0 0.0 0.00 0.00 0.00 83 1011.7
20260504233414 55 68 0.0 0.0 0.00 0.00 0.00 82 1011.7
20260504232904 55 68 0.0 0.0 0.00 0.00 0.00 81 1011.7
20260504232354 55 68 0.0 0.0 0.00 0.00 0.00 80 1011.7
20260504231844 55 68 0.0 0.0 0.00 0.00 0.00 80 1011.6
20260504231334 56 68 0.0 0.0 0.00 0.00 0.00 79 1011.5
20260504230823 56 68 0.0 0.0 0.00 0.00 0.00 78 1011.5
20260504225804 57 68 0.0 0.0 0.00 0.00 0.00 76 1011.2
20260504224743 57 68 0.0 0.0 0.00 0.00 0.00 74 1011.3
20260504224232 57 68 0.0 0.0 0.00 0.00 0.00 74 1011.1
20260504223723 58 68 0.0 0.0 0.00 0.00 0.00 72 1011.1
20260504223212 58 68 0.0 0.0 0.00 0.00 0.00 71 1010.8
20260504222152 60 68 0.0 0.0 0.00 0.00 0.00 67 1010.8
20260504221132 61 68 0.0 0.0 0.00 0.00 0.00 65 1010.8
20260504220622 61 68 0.0 0.0 0.00 0.00 0.00 65 1011.0
20260504220112 61 68 0.0 0.0 0.00 0.00 0.00 64 1011.0
20260504215602 61 68 0.0 0.0 0.00 0.00 0.00 63 1011.0
20260504215052 62 68 0.0 0.0 0.00 0.00 0.00 63 1011.0
20260504214542 62 68 0.0 0.0 0.00 0.00 0.00 62 1011.0
20260504214031 62 68 0.0 0.0 0.00 0.00 0.00 61 1010.8
20260504213522 62 68 0.0 2.0 0.00 0.00 0.00 60 1010.6
20260504213011 62 68 0.0 2.0 0.00 0.00 0.00 60 1010.6
20260504212502 63 68 1.0 2.0 0.00 0.00 0.00 58 1010.7
20260504211951 65 68 0.0 2.0 0.00 0.00 0.00 55 1011.0
20260504211440 65 68 1.0 2.0 0.00 0.00 0.00 54 1010.8
20260504210931 66 68 0.0 0.0 0.00 0.00 0.00 52 1011.0
20260504210421 66 90 0.0 2.0 0.00 0.00 0.00 52 1011.0
20260504205911 67 68 0.0 2.0 0.00 0.00 0.00 51 1010.8
20260504205359 68 68 0.0 4.0 0.00 0.00 0.00 50 1010.7
20260504204340 69 23 2.0 4.0 0.00 0.00 0.00 48 1010.7
20260504203320 69 68 1.0 2.0 0.00 0.00 0.00 49 1010.8
20260504202810 70 68 0.0 4.0 0.00 0.00 0.00 47 1010.6
20260504202300 71 180 1.0 4.0 0.00 0.00 0.00 46 1010.8
20260504201239 72 90 0.0 4.0 0.00 0.00 0.00 45 1010.6
20260504200729 72 68 1.0 4.0 0.00 0.00 0.00 44 1010.5
20260504200219 72 45 1.0 4.0 0.00 0.00 0.00 43 1010.5
20260504195709 72 23 0.0 4.0 0.00 0.00 0.00 42 1010.4
20260504195159 72 270 2.0 4.0 0.00 0.00 0.00 41 1010.4
20260504194139 73 113 2.0 4.0 0.00 0.00 0.00 42 1010.2
20260504193628 73 45 2.0 4.0 0.00 0.00 0.00 45 1010.4
20260504193119 73 68 2.0 4.0 0.00 0.00 0.00 44 1010.5
20260504192609 73 315 1.0 6.0 0.00 0.00 0.00 40 1010.4
20260504192059 73 45 2.0 6.0 0.00 0.00 0.00 45 1010.6
20260504191039 74 225 2.0 4.0 0.00 0.00 0.00 41 1010.7
20260504190528 73 315 0.0 8.0 0.00 0.00 0.00 44 1010.6
20260504190018 74 270 3.0 8.0 0.00 0.00 0.00 44 1010.8
20260504185508 73 225 1.0 4.0 0.00 0.00 0.00 42 1010.8
20260504184448 73 270 2.0 4.0 0.00 0.00 0.00 44 1010.5
20260504183937 72 68 2.0 4.0 0.00 0.00 0.00 43 1010.4
20260504182917 72 45 1.0 4.0 0.00 0.00 0.00 43 1010.4
20260504182407 73 68 2.0 4.0 0.00 0.00 0.00 41 1010.6
20260504181857 73 0 1.0 6.0 0.00 0.00 0.00 44 1010.7
20260504181347 73 23 1.0 6.0 0.00 0.00 0.00 42 1010.8
20260504180837 73 45 2.0 4.0 0.00 0.00 0.00 41 1011.0
20260504180327 73 315 1.0 6.0 0.00 0.00 0.00 42 1010.7
20260504175816 73 23 2.0 6.0 0.00 0.00 0.00 43 1010.8
20260504175306 73 68 2.0 6.0 0.00 0.00 0.00 43 1011.0
20260504174756 72 23 1.0 4.0 0.00 0.00 0.00 45 1010.8
20260504174247 72 68 2.0 6.0 0.00 0.00 0.00 44 1010.8
20260504173226 73 270 1.0 6.0 0.00 0.00 0.00 47 1011.0
20260504172716 73 293 2.0 7.0 0.00 0.00 0.00 46 1011.1
20260504172206 72 90 4.0 7.0 0.00 0.00 0.00 46 1011.2
20260504171656 72 315 1.0 7.0 0.00 0.00 0.00 48 1011.1
20260504171144 71 45 2.0 7.0 0.00 0.00 0.00 48 1011.5
20260504160147 70 270 1.0 7.0 0.00 0.00 0.00 54 1013.3